Voltar ao catálogo

NIMBUS 2 DEB

AtivoLEO
NORAD 40642·DEBRIS·🇺🇸 United States

Lançado May 15, 1966 de Vandenberg Space Force Base

Loading…

Próximas Passagens (próximas 24 horas)

TLE

EnvelhecendoSource: Space-Track

Época: Sep 12, 2026, 17:13 UTC

1 40642U 66040BF  26255.71746893  .00003375  00000-0  44693-2 0  9993
2 40642 100.3137 174.4821 0035235 198.9748 161.0080 13.61364324557336

Acompanhe NIMBUS 2 DEB em tempo real com AllMySat

Download on the App Store